Change the Weather History Date:

Monday, April 1, 2013

  Actual Average Record
Temperature  
Mean Temperature 50 °F 42 °F  
Max Temperature 66 °F 57 °F 73 °F (2011)
Min Temperature 33 °F 26 °F 11 °F (1980)
Degree Days  
Heating Degree Days 15 23  
Month to date heating degree days 15 23  
Since 1 July heating degree days 6154 6052  
Cooling Degree Days 0 0  
Month to date cooling degree days 0 0  
Year to date cooling degree days 0 0  
Moisture  
Dew Point 18 °F    
Average Humidity 37    
Maximum Humidity 61    
Minimum Humidity 13    
Precipitation  
Precipitation 0.00 in 0.03 in 1.26 in (1986)
Month to date precipitation 0.00 0.03  
Year to date precipitation 2.61 3.56  
Sea Level Pressure  
Sea Level Pressure 29.90 in    
Wind  
Wind Speed 7 mph (SSW)    
Max Wind Speed 24 mph    
Max Gust Speed 31 mph    
Visibility 10 miles    
Events      
T = Trace of Precipitation, MM = Missing Value Source: NWS Daily Summary

Daily Weather History Graph

Daily Weather History Graph

Search for Another Location

Airport or City:

Trip Planner

Search our weather history database for the weather conditions in past years. The results will help you decide how hot, cold, wet, or windy it might be!

Date:

Astronomy

Apr. 01, 2013 Rise Set
Actual Time 6:56 AM MDT 7:33 PM MDT
Civil Twilight 6:30 AM MDT 8:00 PM MDT
Nautical Twilight 5:59 AM MDT 8:31 PM MDT
Astronomical Twilight 5:27 AM MDT 9:02 PM MDT
Moon 12:39 AM MDT (4/1) 10:52 AM MDT (4/1)
Length of Visible Light 13h 30m
Length of Day
12h 37m
Waning Gibbous, 66% of the Moon is Illuminated
Apr 1
Waning Gibbous
Apr 2
Last Quarter
Apr 10
New
Apr 18
First Quarter
Apr 25
Full

Hourly Weather History & Observations

Time (MDT) Temp. Windchill Dew Point Humidity Pressure Visibility Wind Dir Wind Speed Gust Speed Precip Events Conditions
12:53 AM 42.1 °F 40.2 °F 23.0 °F 47% 29.93 in 10.0 mi East 3.5 mph - N/A   Mostly Cloudy
2:53 AM 42.1 °F - 24.1 °F 49% 29.93 in 10.0 mi Calm Calm - N/A   Mostly Cloudy
3:53 AM 42.1 °F - 24.1 °F 49% 29.92 in 10.0 mi Calm Calm - N/A   Clear
4:53 AM 36.0 °F - 23.0 °F 59% 29.94 in 10.0 mi Calm Calm - N/A   Overcast
5:53 AM 36.0 °F 32.1 °F 23.0 °F 59% 29.96 in 10.0 mi East 4.6 mph - N/A   Mostly Cloudy
6:53 AM 34.0 °F 29.8 °F 21.9 °F 61% 29.99 in 10.0 mi NE 4.6 mph - N/A   Scattered Clouds
7:53 AM 37.9 °F - 25.0 °F 60% 30.01 in 10.0 mi Calm Calm - N/A   Scattered Clouds
8:53 AM 45.0 °F 43.5 °F 26.1 °F 48% 30.01 in 10.0 mi NNE 3.5 mph - N/A   Partly Cloudy
9:53 AM 50.0 °F - 28.0 °F 43% 29.99 in 10.0 mi Variable 4.6 mph - N/A   Clear
10:53 AM 54.0 °F - 28.0 °F 37% 29.98 in 10.0 mi Calm Calm - N/A   Clear
11:53 AM 57.9 °F - 21.0 °F 24% 29.94 in 10.0 mi SSW 10.4 mph 20.7 mph N/A   Partly Cloudy
12:53 PM 62.1 °F - 16.0 °F 17% 29.91 in 10.0 mi SSW 17.3 mph 24.2 mph N/A   Partly Cloudy
1:53 PM 62.1 °F - 18.0 °F 18% 29.87 in 10.0 mi SW 10.4 mph 24.2 mph N/A   Clear
2:53 PM 64.0 °F - 16.0 °F 16% 29.84 in 10.0 mi South 15.0 mph 23.0 mph N/A   Scattered Clouds
3:10 PM 62.6 °F - 15.8 °F 16% 29.98 in 10.0 mi South 15.0 mph 24.2 mph N/A   Scattered Clouds
3:53 PM 64.0 °F - 17.1 °F 16% 29.81 in 10.0 mi SW 16.1 mph 26.5 mph N/A   Mostly Cloudy
4:53 PM 64.0 °F - 15.1 °F 15% 29.81 in 10.0 mi SW 16.1 mph 23.0 mph N/A   Mostly Cloudy
5:53 PM 63.0 °F - 10.0 °F 13% 29.80 in 10.0 mi WSW 15.0 mph - N/A   Clear
6:53 PM 60.1 °F - 12.9 °F 16% 29.83 in 10.0 mi WSW 15.0 mph 21.9 mph N/A   Clear
7:53 PM 57.0 °F - 8.1 °F 14% 29.83 in 10.0 mi West 10.4 mph - N/A   Clear
8:53 PM 52.0 °F - 8.1 °F 17% 29.83 in 10.0 mi SSW 3.5 mph - N/A   Clear
9:53 PM 52.0 °F - 9.0 °F 18% 29.83 in 10.0 mi WSW 3.5 mph - N/A   Clear
10:53 PM 46.9 °F - 10.0 °F 22% 29.83 in 10.0 mi Calm Calm - N/A   Clear
11:53 PM 35.1 °F - 8.1 °F 33% 29.87 in 10.0 mi Calm Calm - N/A   Clear